Regional Weather Roundup
Issued by NWS

Home | Current Version | Previous Version | Graphics & Text | Print | Product List | Glossary On
Versions: 1 2 3 4 5 6 7 8 9 10 11 12 13 14 15 16 17 18 19 20 21 22 23 24 25 26 27 28 29 30 31 32 33 34 35 36 37 38 39 40 41 42 43 44 45 46 47 48 49 50
000
ASUS45 KSLC 270810
RWRUT

UTAH REGIONAL WEATHER ROUNDUP
NATIONAL WEATHER SERVICE SALT LAKE CITY UT
200 AM MDT MON JUL 27 2015

UTZ001>011-023>025-270900-

NORTHERN UTAH

CITY           SKY/WX    TMP DP  RH WIND       PRES   REMARKS
BRIGHAM CITY   CLEAR     73  30  20 N6        29.76R
HILL AFB       CLEAR     80  22  11 S18G26    29.81S
LOGAN            N/A    N/A N/A N/A MISG      29.78R
OGDEN          CLEAR     82  21  10 S20G30    29.77S
PROVO AIRPORT  PTCLDY    72  36  26 SE12      29.87S
SALT LAKE CITY CLEAR     84  24  11 S21G30    29.77S
VERNAL         PTCLDY    65  45  48 W7        29.95F
WENDOVER       CLEAR     81  34  18 W5        29.79R
HEBER CITY     PTCLDY    59  37  44 CALM      29.95S
WEST JORDAN    CLEAR     79  30  17 SE17      29.83S

$$

UTZ012>022-026-027-270900-

SOUTHERN/CENTRAL UTAH

CITY           SKY/WX    TMP DP  RH WIND       PRES   REMARKS
BLANDING       MOCLDY    71  45  39 E5        30.12S
BRYCE CANYON   CLEAR     44  32  62 CALM      30.18F
CEDAR CITY     CLEAR     71  24  17 S14       30.00F
DELTA          CLEAR     74  23  14 SE12      29.89S
HANKSVILLE     CLEAR     64  36  34 NE6       29.90F
MILFORD        CLEAR     65  27  23 S12       29.94S
MOAB/CYNLANDS  CLEAR     77  45  32 SE7       29.89F
PRICE          CLEAR     70  40  33 CALM      29.99F
ST GEORGE      MOSUNNY   81  28  15 SE12      29.85S
KANAB          CLEAR     61  37  41 N5        30.06F

$$

REGIONAL REPORTS     COLORADO/ARIZONA

CITY           SKY/WX    TMP DP  RH WIND       PRES   REMARKS
CRAIG, CO      CLEAR     59  44  57 E6        30.07F
GRAND JUNCTION PTCLDY    73  47  39 E14       29.95F
RIFLE          PTCLDY    64  45  49 CALM      30.03F
MONTROSE       MOCLDY    69  50  50 E12       30.08F
CORTEZ         PTCLDY    73  48  41 E9G18     30.08F
PAGE, AZ       NOT AVBL
GRAND CANYON   CLEAR     49  30  48 CALM      30.16F
KINGMAN        CLEAR     79  29  16 S10       29.92S
FLAGSTAFF      CLEAR     58  34  40 SW7       30.21F

$$

REGIONAL REPORTS    NEVADA/IDAHO/WYOMING

CITY           SKY/WX    TMP DP  RH WIND       PRES   REMARKS
LAS VEGAS, NV  CLEAR     88  37  16 S9        29.73F
ELY            CLEAR     67  14  13 SE18G24   29.98F
ELKO           MOCLDY    59  36  42 S6        29.90S
POCATELLO, ID  CLEAR     65  46  50 SW14      29.83S
BURLEY         CLOUDY    64  43  46 W20G30    29.84R
EVANSTON, WY   CLEAR     60  30  32 S9        30.03F
ROCK SPRINGS   PTCLDY    67  39  35 S5        30.02F
KEMMERER       CLEAR     61  30  31 CALM      30.04F

$$



USA.gov is the U.S. government's official web portal to all federal, state and local government web resources and services.